Lid_Strength_Index
17 18 20 17 14 17 19 19 18 17 16 17 18 18 16 15 18 18 17 18 18 16 12 11 12 11 12 12 11 11 11 11 11 12 13 13 13 12 11 11 10 9 9 10
19 20 16 16 16 16 17 19 19 17 16 17 18 19 17 16 16 16 15 16 16 15 13 13 12 12 12 11 11 11 11 11 11 11 12 12 12 12 11 11 10 9 9 10
21 20 18 16 18 18 19 18 19 18 17 18 20 19 19 17 17 16 15 15 15 14 14 14 14 13 12 12 11 11 11 10 10 10 11 12 11 12 11 11 11 10 9 9
19 19 18 20 19 18 19 18 17 18 19 22 20 24 20 17 15 17 16 15 15 15 14 14 14 14 13 12 11 10 10 11 11 11 11 12 11 12 12 11 11 10 9 10
20 20 20 20 19 18 19 18 18 18 20 21 23 23 21 19 17 15 14 15 16 15 14 14 14 13 12 11 11 10 10 11 11 11 10 11 12 12 12 12 11 10 10 11
19 18 19 19 19 19 18 18 18 19 21 26 22 22 19 19 18 17 15 15 14 14 15 15 15 14 13 12 11 11 11 11 11 11 11 11 11 12 12 12 11 11 12 12
19 19 19 17 19 18 20 21 24 27 29 25 23 23 18 18 16 16 15 14 14 15 15 15 16 15 14 13 12 12 12 12 12 11 11 11 11 12 11 11 11 13 13 13
21 22 19 18 18 19 20 21 24 28 27 24 22 24 21 17 16 15 14 14 14 14 15 15 16 16 15 14 13 13 13 12 12 12 12 11 12 12 12 12 12 12 12 13
23 21 19 18 18 18 19 21 20 23 27 25 22 21 18 16 16 15 15 15 15 16 14 15 15 15 15 14 14 13 13 12 12 12 12 12 12 13 12 13 13 12 13 12
17 21 20 19 19 19 19 18 21 23 28 29 23 22 21 17 17 17 16 16 15 16 16 15 15 15 15 14 14 13 12 12 12 12 12 12 12 12 13 13 13 13 13 13
16 17 21 20 21 20 20 21 21 21 21 24 26 22 18 17 17 17 16 16 17 16 15 15 15 15 15 15 15 14 14 13 13 12 12 13 13 13 13 13 13 13 13 13
15 16 20 21 20 19 20 20 20 22 24 23 22 22 17 16 16 16 15 15 15 15 16 16 15 15 15 15 15 15 14 14 13 13 13 13 13 13 13 13 13 13 12 12
14 16 21 19 19 20 23 20 19 19 19 23 23 20 16 17 16 15 15 15 15 14 15 16 16 16 16 16 15 15 14 14 14 13 13 13 13 13 13 13 13 12 13 13
10 15 19 18 17 19 22 21 18 19 22 20 20 18 17 17 17 16 15 16 15 15 14 14 14 15 16 16 16 15 14 13 13 13 13 13 13 12 12 12 12 13 13 13
11 15 14 14 14 17 16 20 19 19 18 20 18 19 18 17 16 16 16 15 15 15 15 15 15 14 14 14 14 15 15 14 13 13 13 13 13 13 13 13 13 13 13 13
11 15 14 15 13 14 16 18 18 18 17 17 17 18 17 16 16 16 17 17 17 17 17 16 16 16 15 14 14 14 14 15 14 14 14 13 14 14 13 13 13 13 13 14
14 13 15 18 14 14 17 15 16 17 16 16 18 15 15 16 17 19 19 18 19 18 18 18 17 17 16 15 15 15 15 14 14 14 13 14 13 13 13 13 14 14 14 14
15 15 15 17 20 21 15 13 12 13 12 14 15 17 18 17 18 18 18 19 19 19 19 19 19 18 17 17 17 16 16 15 15 15 14 14 14 13 14 14 14 14 14 15
11 14 17 18 18 16 15 17 19 18 18 17 17 19 18 17 16 18 18 18 18 19 19 18 19 18 18 18 18 17 16 16 16 16 15 15 14 14 14 14 14 14 14 15
11 12 15 16 19 21 18 16 14 15 21 17 16 17 17 17 18 20 17 18 18 18 18 19 19 19 19 19 19 17 17 17 18 17 16 15 15 14 14 13 14 14 14 15
19 16 18 18 19 19 17 15 15 19 21 16 16 17 17 18 17 17 17 18 18 19 19 19 20 20 19 20 20 19 19 20 18 17 17 16 15 14 14 14 14 15 15 16
17 19 20 18 20 22 14 14 18 16 14 15 16 17 18 18 18 19 19 18 19 20 20 20 21 21 20 21 21 21 21 20 20 18 17 17 16 15 15 15 15 16 15 16
18 16 19 17 18 13 13 14 13 13 13 15 17 18 18 18 19 18 19 19 20 20 21 21 22 21 22 23 22 23 21 20 21 20 17 17 17 16 16 15 16 16 15 15
14 13 15 17 15 13 14 16 15 15 16 17 17 18 18 20 19 19 18 18 19 19 20 21 22 22 23 22 22 23 22 22 22 21 19 16 16 16 17 16 15 15 15 15
11 10 15 15 13 13 15 16 17 16 17 18 18 19 19 19 19 19 20 20 20 21 21 21 22 22 23 22 23 23 22 23 22 21 20 17 15 16 16 16 15 15 14 13
13 17 13 15 17 16 16 17 17 18 19 19 20 20 20 20 20 20 21 21 22 22 22 23 22 23 23 23 23 23 23 23 23 22 20 19 17 15 16 16 15 13 12 12